Location: Go?cza
(50.3372°N, 19.9313°E)
Time: 22:01:38
(UTC+00:00)

Cosmos 968 Rocket - Pass Details

Date: 23 May 2024
Orbit: 737 x 769 km, 74.0° (Epoch: 22 June)

Event Time Altitude Azimuth Distance (km) Brightness Sun altitude
Exits shadow 00:22:20 16° 164° (SSE) 1,893 5.1 -15.3°
Maximum altitude 00:25:57 37° 104° (ESE) 1,140 4.5 -15.1°
Drops below altitude 10° 00:30:39 10° 38° (NE) 2,269 7.3 -14.7°
Sets 00:33:09 0° 30° (NNE) 3,202 8.7 -14.5°
